Hovedside
METAR-TAF:

METAR-TAF

Lufthavner :

Båtsfjord, Norge

Båtsfjord lufthavn

breddegrad: 70-38N, lengdegrad: 029-44E, høyde over havet: 10 m

Gjeldene værobservasjon

Denne rapporten ble laget for 6 timer og 9 minutter siden, klokken 15:50 UTC
Vind 11 kt fra Sør-sørøst
Temperatur 11°C
Luftfuktighet 82%
Trykk 1014 hPa
Sikt 10 km eller mer
ingen skyer under 1500 m og ingen bygeskyer

METAR: ENBS 181550Z 16011KT CAVOK 11/08 Q1014

Tid: 23:59 (21:59 UTC)


TAF: fraværende

Værobservasjoner og værvarsel for over 4000 flyplasser (METAR- og TAF-rapporter).

Tilgjengelige stasjoner er representert av de røde og gule prikkene på kartet.

Hold musepekeren over prikken for å se navnet på stasjonen.

Klikk så for å se værobservasjoner og -varsler.

For å forandre kartet kan du klikke på den grønne knappen med svart kryss for å zoome inn, på den grønne knappen med strek for å zoome ut, eller på de grønne pilene for å se tilstøtende kart.


METAR-TAF: